Date String (YYYY-MM-DD hh:mm:ss) UTC,Instrument flags,absolute air pressure of the measurement (hPa),sample flow rate (lpm),inlet stack bypass flow (lpm),air temperature of the measurement (°C),ambient temperature measured by the external sensor (°C),aerosol sample conditioner tube jacket temperature (°C),OPC LED temperature (°C),internal box temperature (°C),relative humidity of the measurement (%),span deviation,mass concentration of particles derived from Lorenz-Mie calculation of OPC scattering (μg/m³),mass concentration of particles derived from Lorenz-Mie calculation of OPC scattering (μg/m³),mass concentration of particles derived from Lorenz-Mie calculation of OPC scattering (μg/m³)
DateTimeUTC,F1_M11,P_M11,Q1_M11,Q2_M11,T1_M11,T2_M11,T3_M11,T4_M11,T5_M11,U1_M11,ZSPAN_M11,X0_M11,X2_M11,X1_M11
2023-10-15 19:00:00,SystemResetWarning,0839.8,5.01,000.00,029.4,028.3,000.0,037.7,031.1,12.7,0000.0,0005.39,0003.41,0003.12
2023-10-15 19:01:00,SystemResetWarning,0839.9,4.99,000.00,029.4,028.3,000.0,037.7,031.1,12.8,0000.0,0007.29,0003.46,0003.16
2023-10-15 19:02:00,SystemResetWarning,0839.8,4.98,000.00,029.4,028.3,000.0,037.7,031.1,12.7,0000.0,0008.38,0003.48,0003.19
2023-10-15 19:03:00,SystemResetWarning,0839.8,5.01,000.00,029.5,028.4,000.0,037.8,031.1,12.6,0000.0,0009.06,0003.50,0003.22
2023-10-15 19:04:00,SystemResetWarning,0839.8,5.01,000.00,029.5,028.4,000.0,037.8,031.1,12.5,0000.0,0009.01,0003.51,0003.25
2023-10-15 19:05:00,SystemResetWarning,0839.8,4.99,000.00,029.5,028.4,000.0,037.8,031.1,12.5,0000.0,0009.22,0003.54,0003.27
2023-10-15 19:06:00,SystemResetWarning,0839.7,5.00,000.00,029.5,028.4,000.0,037.8,031.2,12.5,0000.0,0009.68,0003.55,0003.28
2023-10-15 19:07:00,SystemResetWarning,0839.7,4.99,000.00,029.5,028.4,000.0,037.8,031.2,12.5,0000.0,0009.75,0003.58,0003.30
2023-10-15 19:08:00,SystemResetWarning,0839.7,5.00,000.00,029.5,028.5,000.0,037.9,031.2,12.5,0000.0,0009.84,0003.57,0003.31
2023-10-15 19:09:00,SystemResetWarning,0839.7,5.00,000.00,029.6,028.5,000.0,037.9,031.2,12.4,0000.0,0010.78,0003.58,0003.31
2023-10-15 19:10:00,SystemResetWarning,0839.7,5.01,000.00,029.6,028.5,000.0,037.9,031.2,12.4,0000.0,0010.94,0003.58,0003.31
2023-10-15 19:11:00,SystemResetWarning,0839.7,5.00,000.00,029.6,028.5,000.0,037.9,031.3,12.5,0000.0,0010.95,0003.59,0003.32
2023-10-15 19:12:00,SystemResetWarning,0839.7,4.98,000.00,029.6,028.6,000.0,037.9,031.3,12.6,0000.0,0011.15,0003.59,0003.32
2023-10-15 19:13:00,SystemResetWarning,0839.7,5.01,000.00,029.7,028.6,000.0,037.9,031.3,12.5,0000.0,0010.82,0003.59,0003.29
2023-10-15 19:14:00,SystemResetWarning,0839.7,5.01,000.00,029.7,028.6,000.0,037.9,031.3,12.5,0000.0,0009.91,0003.59,0003.27
2023-10-15 19:15:00,SystemResetWarning,0839.7,4.98,000.00,029.7,028.6,000.0,038.0,031.3,12.5,0000.0,0009.93,0003.59,0003.25
2023-10-15 19:16:00,SystemResetWarning,0839.7,5.00,000.00,029.7,028.6,000.0,038.0,031.3,12.4,0000.0,0010.60,0003.58,0003.24
2023-10-15 19:17:00,SystemResetWarning,0839.6,5.00,000.00,029.7,028.5,000.0,038.0,031.4,12.4,0000.0,0010.06,0003.55,0003.24
2023-10-15 19:18:00,SystemResetWarning,0839.6,4.99,000.00,029.7,027.0,000.0,038.0,031.3,12.5,0000.0,0010.28,0003.55,0003.24
2023-10-15 19:19:00,SystemResetWarning,0839.6,5.01,000.00,029.6,025.4,000.0,037.9,031.0,12.5,0000.0,0010.39,0003.54,0003.23
2023-10-15 19:20:00,SystemResetWarning,0839.5,5.01,000.00,029.5,025.1,000.0,037.8,030.9,12.5,0000.0,0009.35,0003.52,0003.22
2023-10-15 19:21:00,SystemResetWarning,0839.5,4.99,000.00,029.4,025.4,000.0,037.8,030.6,12.6,0000.0,0009.23,0003.49,0003.20
2023-10-15 19:22:00,SystemResetWarning,0839.5,5.00,000.00,029.3,025.8,000.0,037.8,030.6,12.6,0000.0,0009.56,0003.51,0003.19
2023-10-15 19:23:00,SystemResetWarning,0839.5,5.00,000.00,029.2,026.1,000.0,037.8,030.6,12.7,0000.0,0008.94,0003.47,0003.17
2023-10-15 19:24:00,SystemResetWarning,0839.5,5.00,000.00,029.2,026.5,000.0,037.8,030.6,12.6,0000.0,0007.92,0003.44,0003.16
2023-10-15 19:25:00,SystemResetWarning,0839.5,5.00,000.00,029.2,026.8,000.0,037.8,030.6,12.6,0000.0,0009.04,0003.42,0003.13
2023-10-15 19:26:00,SystemResetWarning,0839.5,5.00,000.00,029.2,027.1,000.0,037.8,030.7,12.6,0000.0,0009.31,0003.41,0003.13
2023-10-15 19:27:00,SystemResetWarning,0839.5,5.00,000.00,029.2,027.3,000.0,037.8,030.7,12.5,0000.0,0008.66,0003.43,0003.12
2023-10-15 19:28:00,SystemResetWarning,0839.5,5.00,000.00,029.2,027.5,000.0,037.8,030.8,12.5,0000.0,0008.55,0003.46,0003.11
2023-10-15 19:29:00,SystemResetWarning,0839.5,5.00,000.00,029.2,027.6,000.0,037.7,030.8,12.4,0000.0,0008.31,0003.46,0003.08
2023-10-15 19:30:00,SystemResetWarning,0839.5,5.00,000.00,029.2,027.7,000.0,037.7,030.8,12.4,0000.0,0008.05,0003.43,0003.05
2023-10-15 19:31:00,SystemResetWarning,0839.5,4.99,000.00,029.3,027.9,000.0,037.7,030.9,12.5,0000.0,0008.73,0003.44,0003.03
2023-10-15 19:32:00,SystemResetWarning,0839.5,4.99,000.00,029.3,027.9,000.0,037.7,030.9,12.6,0000.0,0008.68,0003.45,0003.02
2023-10-15 19:33:00,SystemResetWarning,0839.5,5.01,000.00,029.3,028.0,000.0,037.8,030.9,12.6,0000.0,0008.32,0003.41,0003.00
2023-10-15 19:34:00,SystemResetWarning,0839.5,5.01,000.00,029.3,028.1,000.0,037.7,031.0,12.6,0000.0,0008.27,0003.41,0002.99
2023-10-15 19:35:00,SystemResetWarning,0839.5,5.00,000.00,029.4,028.2,000.0,037.8,031.0,12.6,0000.0,0008.24,0003.41,0002.98
2023-10-15 19:36:00,SystemResetWarning,0839.5,4.99,000.00,029.4,028.2,000.0,037.8,031.0,12.5,0000.0,0006.95,0003.38,0002.97
2023-10-15 19:37:00,SystemResetWarning,0839.5,5.00,000.00,029.4,028.3,000.0,037.8,031.1,12.5,0000.0,0006.07,0003.33,0002.93
2023-10-15 19:38:00,SystemResetWarning,0839.5,5.02,000.00,029.4,028.3,000.0,037.8,031.1,12.5,0000.0,0005.96,0003.30,0002.92
2023-10-15 19:39:00,SystemResetWarning,0839.5,5.00,000.00,029.5,028.3,000.0,037.8,031.1,12.6,0000.0,0005.77,0003.26,0002.90
2023-10-15 19:40:00,SystemResetWarning,0839.4,4.98,000.00,029.5,027.2,000.0,037.8,031.1,12.5,0000.0,0006.71,0003.25,0002.88
2023-10-15 19:41:00,SystemResetWarning,0839.4,5.00,000.00,029.4,025.2,000.0,037.7,030.8,12.5,0000.0,0007.24,0003.26,0002.89
2023-10-15 19:42:00,SystemResetWarning,0839.4,5.01,000.00,029.2,024.6,000.0,037.6,030.6,12.7,0000.0,0006.36,0003.25,0002.88
2023-10-15 19:43:00,SystemResetWarning,0839.3,5.01,000.00,029.1,024.8,000.0,037.6,030.4,12.8,0000.0,0006.30,0003.24,0002.88
2023-10-15 19:44:00,SystemResetWarning,0839.4,4.99,000.00,029.0,025.2,000.0,037.6,030.3,12.8,0000.0,0006.25,0003.22,0002.88
2023-10-15 19:45:00,SystemResetWarning,0839.3,5.00,000.00,028.9,025.6,000.0,037.6,030.3,12.9,0000.0,0006.31,0003.22,0002.88
2023-10-15 19:46:00,SystemResetWarning,0839.3,5.00,000.00,028.9,026.0,000.0,037.6,030.4,12.9,0000.0,0006.57,0003.25,0002.88
2023-10-15 19:47:00,SystemResetWarning,0839.4,4.99,000.00,028.9,026.4,000.0,037.6,030.4,12.9,0000.0,0007.04,0003.25,0002.90
2023-10-15 19:48:00,SystemResetWarning,0839.4,4.99,000.00,028.9,026.7,000.0,037.5,030.5,12.9,0000.0,0007.57,0003.29,0002.94
2023-10-15 19:49:00,SystemResetWarning,0839.3,5.00,000.00,028.9,026.9,000.0,037.5,030.5,12.9,0000.0,0007.59,0003.32,0002.99
2023-10-15 19:50:00,SystemResetWarning,0839.3,5.00,000.00,028.9,027.2,000.0,037.5,030.5,13.1,0000.0,0007.55,0003.31,0003.00
2023-10-15 19:51:00,SystemResetWarning,0839.4,5.01,000.00,029.0,027.3,000.0,037.5,030.6,12.7,0000.0,0007.32,0003.30,0003.00
2023-10-15 19:52:00,SystemResetWarning,0839.4,5.01,000.00,029.0,027.5,000.0,037.5,030.6,12.8,0000.0,0006.56,0003.27,0003.00
2023-10-15 19:53:00,SystemResetWarning,0839.3,4.99,000.00,029.0,027.6,000.0,037.5,030.7,12.9,0000.0,0007.25,0003.27,0003.00
2023-10-15 19:54:00,SystemResetWarning,0839.3,4.99,000.00,029.0,027.7,000.0,037.5,030.7,12.7,0000.0,0007.36,0003.29,0003.02
2023-10-15 19:55:00,SystemResetWarning,0839.4,5.01,000.00,029.1,027.8,000.0,037.5,030.8,12.4,0000.0,0007.44,0003.31,0003.04
2023-10-15 19:56:00,SystemResetWarning,0839.3,5.01,000.00,029.1,027.9,000.0,037.5,030.8,12.5,0000.0,0008.08,0003.33,0003.07
2023-10-15 19:57:00,SystemResetWarning,0839.4,4.99,000.00,029.1,027.9,000.0,037.5,030.8,12.4,0000.0,0008.24,0003.31,0003.08
2023-10-15 19:58:00,SystemResetWarning,0839.4,5.00,000.00,029.1,028.0,000.0,037.5,030.9,12.4,0000.0,0008.33,0003.34,0003.09
2023-10-15 19:59:00,SystemResetWarning,0839.4,5.00,000.00,029.2,028.0,000.0,037.5,030.9,12.4,0000.0,0007.77,0003.34,0003.09
